Temp
71 73 72 73 59 53 47 53 59 58 59 64 65 64 61 61 60 50 66 71 73 70 69 75 78 78 78 77 77 77 76 75 75 75 75 74 74 74 74 75 75 76 77 77 77 78 78 77 78
73 77 73 65 52 45 47 56 56 60 65 65 65 63 62 59 66 66 65 71 72 70 67 70 77 77 77 77 77 77 76 75 75 75 75 74 74 74 74 75 75 75 77 77 77 78 78 78 78
76 79 65 57 48 47 48 57 60 64 68 67 63 68 65 62 67 67 70 73 70 67 67 69 77 77 77 77 77 76 76 75 75 75 74 73 73 73 73 74 75 75 76 77 77 78 78 78 77
75 70 65 54 50 55 57 61 62 62 65 67 66 62 66 70 70 72 74 73 70 67 67 71 77 77 77 77 77 76 76 76 75 75 74 73 73 73 73 73 73 75 76 77 78 78 78 78 77
72 64 54 50 52 58 60 63 63 62 62 64 64 61 61 70 73 73 70 74 69 66 65 69 76 77 77 77 77 77 76 76 76 74 74 73 73 73 73 73 74 74 76 76 77 77 77 77 77
64 62 50 47 53 61 60 64 65 63 63 62 63 61 61 69 68 69 69 67 67 66 63 65 75 76 76 77 77 76 75 75 75 74 72 72 73 73 73 73 73 74 75 76 76 77 76 76 75
64 57 51 53 54 56 62 66 64 64 63 63 66 59 60 65 67 67 65 65 65 66 65 63 64 68 72 73 74 73 72 72 74 74 73 72 73 72 72 73 73 74 74 75 74 76 76 75 75
66 61 52 55 55 55 65 66 66 66 66 73 70 58 55 63 67 65 64 62 62 64 64 63 60 61 61 62 70 69 69 69 70 70 71 72 71 72 73 72 72 73 74 74 74 75 75 75 74
69 55 50 55 57 59 61 61 66 70 68 67 67 66 67 68 66 63 60 62 61 66 61 59 59 59 59 61 63 63 65 67 66 65 66 66 61 61 66 67 70 71 73 73 73 74 74 74 74
63 53 56 63 62 61 63 65 68 66 64 63 64 67 68 66 62 61 58 57 58 60 61 58 58 58 58 64 57 56 58 58 60 59 59 58 58 58 62 66 69 72 73 72 73 74 74 73 66
63 59 65 66 66 66 65 66 69 63 58 63 62 64 65 62 59 59 57 56 55 57 60 60 58 58 56 56 55 55 56 59 59 58 59 59 60 57 58 59 60 61 66 64 68 67 65 65 65
61 69 68 70 68 67 65 69 65 64 64 69 67 65 63 60 58 58 58 58 57 58 58 60 58 57 56 55 55 55 58 59 59 56 58 57 56 56 57 58 59 60 61 61 62 62 64 63 65
61 66 70 71 68 67 69 65 65 63 67 68 67 65 60 58 59 58 60 59 56 56 58 58 58 56 56 56 55 55 58 59 57 55 56 56 55 56 57 58 58 59 60 61 61 63 65 65 66
70 68 69 67 67 67 65 63 65 64 68 66 65 61 60 60 60 58 59 57 56 57 58 58 58 57 56 55 55 55 55 56 56 55 56 58 56 56 57 57 58 59 60 61 62 63 65 65 66
70 63 66 64 65 65 67 61 62 66 67 64 62 61 60 60 61 60 59 57 56 57 57 58 58 58 55 55 56 56 56 56 55 56 58 59 58 57 58 58 58 59 60 63 62 64 65 65 66
64 60 53 63 66 66 66 55 64 65 64 61 61 61 60 59 61 60 60 58 57 56 58 58 60 57 56 56 56 56 56 56 56 57 57 59 60 60 58 58 59 60 62 63 64 64 64 64 65
58 52 55 60 67 64 61 57 63 64 64 60 59 58 59 58 59 58 61 59 58 58 58 58 57 57 56 56 56 56 56 57 58 58 58 60 62 62 60 61 60 63 64 63 64 63 64 63 64
52 53 56 57 62 62 58 59 62 62 62 59 58 57 57 57 59 60 60 61 59 59 58 58 58 57 57 56 56 57 57 58 58 59 60 61 61 62 60 62 62 63 63 63 63 63 64 63 63
61 57 56 59 65 61 59 58 61 61 59 57 56 55 55 56 60 60 61 61 60 60 58 58 58 57 56 55 55 55 56 57 57 58 60 60 61 62 61 62 63 63 62 63 64 63 62 62 63
58 55 54 59 63 60 58 58 59 60 61 57 56 55 55 55 58 59 59 58 59 59 58 58 58 58 56 55 55 55 56 57 57 58 59 62 62 63 62 62 62 62 62 63 63 63 62 62 62
57 54 55 56 60 59 54 52 54 59 60 59 58 57 56 56 56 58 59 57 58 59 58 59 58 58 57 57 56 57 57 58 59 59 59 60 62 63 62 63 62 62 62 62 62 63 63 60 62
52 62 61 59 53 46 56 40 50 54 57 57 57 54 55 56 56 57 58 56 57 59 59 59 59 57 58 56 57 56 55 55 57 59 59 61 62 63 63 63 62 61 62 61 62 61 61 63 59
59 65 60 57 51 46 48 40 49 51 51 52 55 56 54 56 56 56 58 60 59 60 59 58 58 58 57 57 57 57 57 57 59 59 60 59 61 62 63 63 62 62 62 63 63 62 62 61 60
68 57 55 49 45 37 48 45 44 49 54 54 56 58 57 56 56 57 59 60 59 59 59 58 58 58 57 57 58 58 57 58 57 56 57 58 60 61 63 63 62 62 62 62 62 63 62 61 61
57 49 39 35 35 35 50 45 48 57 59 59 58 57 57 57 55 55 56 57 58 58 58 58 58 57 57 57 57 58 57 56 58 57 58 58 58 60 61 62 62 62 62 63 63 62 62 61 61
54 53 40 34 33 44 50 43 52 60 63 63 63 61 58 55 54 55 57 57 59 59 58 58 58 57 57 57 56 57 58 57 57 58 58 58 59 60 62 61 61 61 62 62 62 61 61 61 61
55 49 55 46 43 40 44 50 57 57 59 58 56 57 56 56 54 56 57 57 58 59 58 58 57 56 57 58 57 57 58 59 58 58 58 57 59 61 63 61 60 61 61 61 60 59 59 61 60
60 61 48 42 34 33 41 45 46 54 56 54 54 54 56 55 54 56 57 57 58 59 58 58 58 57 58 57 57 58 58 59 59 59 59 59 59 60 61 60 59 59 59 60 60 59 59 59 59
54 50 48 47 43 36 31 40 54 55 54 55 57 58 57 57 57 58 56 58 59 57 57 58 58 57 57 56 56 57 58 58 59 59 59 59 59 60 61 61 60 60 60 60 60 58 59 59 58
58 54 50 43 40 43 41 41 56 56 60 57 57 60 60 60 59 58 57 57 57 58 57 58 58 58 58 58 58 57 57 58 58 58 58 59 59 59 60 60 60 61 59 57 59 58 58 58 57
MSLP
1011.61 1011.60 1011.78 1012.12 1013.68 1014.76 1014.85 1014.23 1013.48 1013.12 1012.73 1012.14 1012.07 1012.42 1012.89 1013.43 1013.81 1014.75 1013.93 1013.80 1013.88 1013.92 1013.95 1014.11 1014.44 1014.58 1014.71 1014.63 1014.60 1014.70 1014.78 1014.89 1014.94 1014.96 1014.94 1014.93 1014.96 1014.96 1014.80 1014.73 1014.70 1014.64 1014.53 1014.59 1014.63 1014.56 1014.56 1014.65 1014.64
1011.46 1011.68 1012.07 1012.80 1014.14 1015.21 1015.04 1013.98 1013.58 1013.01 1012.41 1012.17 1012.30 1012.57 1012.89 1013.34 1013.44 1013.74 1013.88 1013.70 1013.55 1013.68 1013.93 1014.15 1014.18 1014.18 1014.26 1014.24 1014.33 1014.42 1014.49 1014.61 1014.65 1014.64 1014.62 1014.70 1014.70 1014.72 1014.60 1014.56 1014.55 1014.56 1014.45 1014.38 1014.47 1014.43 1014.41 1014.55 1014.61
1011.45 1011.57 1012.74 1013.45 1014.52 1014.89 1014.25 1013.61 1013.02 1012.48 1012.25 1012.24 1012.51 1012.63 1013.04 1013.31 1013.45 1013.45 1013.40 1013.36 1013.49 1013.71 1013.74 1013.76 1013.68 1013.83 1014.00 1014.08 1014.15 1014.17 1014.19 1014.28 1014.31 1014.25 1014.23 1014.38 1014.47 1014.52 1014.57 1014.49 1014.52 1014.46 1014.34 1014.13 1014.22 1014.24 1014.30 1014.46 1014.56
1011.60 1012.42 1013.50 1013.85 1014.36 1013.59 1013.25 1012.70 1012.56 1012.39 1012.27 1012.01 1012.16 1013.02 1013.20 1013.16 1013.09 1013.12 1012.97 1013.05 1013.37 1013.56 1013.61 1013.67 1013.78 1013.86 1013.90 1013.92 1013.95 1013.88 1013.86 1013.82 1013.83 1013.87 1013.96 1013.96 1014.16 1014.26 1014.40 1014.37 1014.38 1014.21 1014.14 1013.97 1013.94 1014.05 1014.21 1014.32 1014.56
1011.70 1012.82 1013.81 1014.11 1013.77 1012.87 1012.46 1012.12 1012.26 1012.57 1012.33 1012.27 1012.27 1012.97 1013.29 1013.06 1012.84 1012.88 1013.21 1013.25 1013.28 1013.55 1013.75 1013.77 1013.74 1013.85 1013.84 1013.76 1013.65 1013.50 1013.40 1013.35 1013.41 1013.52 1013.60 1013.61 1013.71 1013.88 1014.00 1014.03 1014.02 1013.97 1013.83 1013.81 1013.77 1013.85 1014.04 1014.24 1014.42
1012.31 1013.13 1014.14 1014.27 1013.43 1012.67 1012.14 1012.01 1012.09 1012.27 1012.34 1012.65 1012.81 1013.18 1013.42 1013.21 1013.28 1013.28 1013.37 1013.54 1013.45 1013.72 1013.90 1013.98 1013.81 1013.74 1013.61 1013.40 1013.20 1013.00 1012.87 1012.86 1012.86 1013.10 1013.20 1013.21 1013.19 1013.37 1013.46 1013.60 1013.64 1013.61 1013.53 1013.56 1013.60 1013.61 1013.81 1014.12 1014.28
1012.00 1013.21 1013.85 1013.69 1013.07 1012.52 1011.87 1011.65 1011.89 1011.96 1012.26 1012.51 1012.80 1013.48 1013.64 1013.59 1013.75 1013.71 1013.81 1013.84 1013.90 1013.78 1014.03 1014.05 1013.98 1013.76 1013.55 1013.34 1013.10 1012.90 1012.73 1012.59 1012.26 1012.43 1012.49 1012.64 1012.78 1013.03 1013.10 1013.16 1013.27 1013.20 1013.16 1013.32 1013.57 1013.52 1013.66 1013.91 1014.21
1011.70 1012.56 1013.26 1013.17 1012.84 1011.91 1011.48 1011.38 1011.22 1011.53 1011.85 1012.28 1012.55 1013.35 1013.84 1013.85 1014.08 1014.25 1014.24 1014.37 1014.19 1014.06 1014.10 1014.13 1014.16 1013.99 1013.81 1013.54 1013.22 1013.13 1012.92 1012.71 1012.43 1012.34 1012.22 1012.20 1012.41 1012.51 1012.58 1012.77 1012.93 1012.91 1012.91 1012.95 1013.16 1013.31 1013.54 1013.83 1014.13
1011.31 1012.21 1012.74 1012.35 1011.98 1011.17 1011.02 1011.30 1011.31 1011.29 1011.81 1012.27 1012.76 1013.16 1013.39 1013.90 1014.30 1014.44 1014.65 1014.60 1014.39 1014.08 1014.19 1014.12 1014.21 1014.15 1013.93 1013.63 1013.50 1013.34 1013.10 1012.84 1012.64 1012.51 1012.43 1012.26 1012.27 1012.27 1012.36 1012.57 1012.74 1012.71 1012.65 1012.65 1012.98 1013.25 1013.42 1013.82 1014.07
1011.21 1011.93 1011.64 1010.80 1010.85 1010.52 1010.36 1010.74 1011.18 1011.73 1012.30 1013.05 1013.37 1013.62 1013.81 1014.35 1014.63 1014.71 1015.15 1015.08 1014.60 1014.48 1014.24 1014.18 1014.16 1014.11 1013.92 1013.63 1013.62 1013.50 1013.29 1013.17 1012.98 1012.75 1012.52 1012.46 1012.41 1012.30 1012.36 1012.51 1012.49 1012.31 1012.27 1012.51 1012.75 1012.94 1013.23 1013.65 1014.15
1010.49 1010.81 1010.30 1010.05 1010.09 1010.24 1010.58 1010.89 1011.01 1011.80 1012.70 1012.65 1013.13 1013.73 1014.28 1014.64 1014.81 1015.12 1015.18 1014.84 1014.78 1014.58 1014.32 1014.10 1014.17 1014.03 1013.91 1013.84 1013.67 1013.51 1013.28 1013.07 1012.77 1012.55 1012.37 1012.28 1012.27 1012.39 1012.38 1012.46 1012.37 1012.34 1012.31 1012.26 1012.45 1012.66 1013.21 1013.66 1014.16
1010.21 1009.42 1009.47 1009.42 1009.55 1010.02 1010.45 1010.52 1011.07 1011.36 1011.55 1011.74 1012.61 1013.40 1014.19 1014.73 1015.06 1015.18 1014.79 1014.81 1014.76 1014.67 1014.36 1014.14 1014.12 1014.01 1013.90 1013.88 1013.63 1013.38 1012.97 1012.68 1012.48 1012.38 1012.22 1012.23 1012.11 1012.15 1012.23 1012.17 1012.13 1012.30 1012.29 1012.21 1012.45 1012.71 1013.15 1013.65 1014.01
1009.63 1009.19 1008.99 1009.06 1009.25 1009.53 1009.97 1010.56 1011.11 1011.41 1011.44 1011.91 1012.65 1013.51 1014.23 1014.69 1014.93 1014.65 1014.56 1014.59 1014.70 1014.63 1014.35 1014.15 1014.13 1014.08 1014.02 1013.92 1013.55 1013.23 1012.80 1012.35 1012.24 1012.18 1012.07 1012.08 1012.02 1011.94 1011.81 1011.86 1011.95 1011.99 1012.07 1012.13 1012.51 1012.78 1013.19 1013.65 1013.93
1009.00 1009.09 1008.93 1009.00 1009.20 1009.54 1010.01 1010.68 1010.90 1011.66 1011.77 1012.45 1012.89 1013.65 1014.03 1014.39 1014.57 1014.60 1014.57 1014.64 1014.66 1014.46 1014.22 1014.18 1014.21 1014.14 1013.96 1013.74 1013.44 1013.05 1012.52 1012.25 1012.16 1012.01 1011.82 1011.62 1011.58 1011.63 1011.64 1011.68 1011.77 1011.86 1011.94 1012.08 1012.34 1012.77 1013.23 1013.66 1013.90
1008.96 1009.46 1009.72 1009.54 1009.42 1009.50 1009.84 1010.85 1010.87 1011.08 1011.89 1012.63 1013.28 1013.76 1013.94 1014.28 1014.41 1014.43 1014.41 1014.60 1014.58 1014.26 1014.18 1014.31 1014.21 1014.09 1014.00 1013.61 1013.19 1012.80 1012.44 1012.26 1011.99 1011.81 1011.55 1011.33 1011.25 1011.32 1011.50 1011.49 1011.53 1011.63 1011.80 1011.93 1012.20 1012.75 1013.37 1013.82 1014.20
1009.52 1009.86 1010.08 1009.42 1009.50 1009.55 1009.90 1010.21 1010.37 1011.00 1011.80 1012.75 1013.43 1013.82 1013.93 1014.19 1014.31 1014.41 1014.31 1014.48 1014.36 1014.08 1014.31 1014.29 1014.17 1014.11 1013.89 1013.50 1013.23 1012.95 1012.53 1012.30 1012.08 1011.81 1011.52 1011.29 1011.26 1011.01 1011.10 1011.28 1011.37 1011.55 1011.67 1011.78 1012.56 1013.21 1013.51 1014.11 1014.49
1010.33 1010.39 1010.21 1009.71 1009.45 1009.81 1010.27 1010.39 1010.24 1010.82 1011.69 1012.58 1013.28 1013.82 1014.24 1014.33 1014.43 1014.40 1014.34 1014.30 1014.16 1013.96 1014.28 1014.29 1014.15 1014.17 1013.86 1013.47 1013.27 1012.93 1012.55 1012.34 1012.02 1011.72 1011.48 1011.17 1010.91 1010.82 1010.95 1011.30 1011.29 1011.38 1011.83 1012.15 1012.75 1013.37 1013.58 1014.32 1014.81
1010.53 1010.53 1010.21 1009.86 1009.65 1009.81 1010.27 1010.21 1010.33 1011.02 1011.62 1012.32 1013.39 1013.98 1014.35 1014.39 1014.50 1014.32 1014.33 1014.25 1014.14 1013.92 1014.21 1014.26 1014.12 1014.13 1013.81 1013.56 1013.34 1013.02 1012.69 1012.38 1012.06 1011.72 1011.15 1011.27 1011.26 1010.94 1011.07 1011.28 1011.57 1011.41 1012.14 1012.63 1013.05 1013.48 1014.05 1014.55 1015.00
1010.02 1010.29 1010.31 1009.81 1009.44 1009.96 1009.91 1010.15 1010.37 1011.04 1011.93 1012.51 1013.32 1014.12 1014.34 1014.55 1014.44 1014.38 1014.29 1014.31 1014.18 1013.94 1014.24 1014.36 1014.23 1014.05 1013.93 1013.78 1013.75 1013.47 1013.13 1012.76 1012.29 1011.88 1011.62 1011.82 1011.28 1011.10 1011.29 1011.69 1011.87 1012.11 1012.47 1012.81 1013.17 1013.66 1014.16 1014.88 1015.41
1009.86 1010.14 1010.09 1009.49 1009.29 1010.08 1009.77 1010.07 1010.40 1011.04 1011.30 1012.09 1013.05 1013.99 1014.18 1014.53 1014.53 1014.50 1014.41 1014.49 1014.24 1014.06 1014.17 1014.36 1014.22 1014.07 1013.95 1013.82 1013.77 1013.72 1013.35 1012.83 1012.83 1012.26 1011.83 1011.74 1011.38 1011.30 1011.55 1012.09 1012.12 1012.26 1012.67 1013.03 1013.57 1014.00 1014.56 1014.83 1015.61
1009.51 1009.88 1009.92 1009.89 1009.53 1009.78 1010.12 1010.46 1010.58 1010.71 1011.11 1011.81 1012.67 1013.30 1014.00 1014.27 1014.49 1014.57 1014.50 1014.63 1014.33 1014.19 1014.16 1014.33 1014.26 1014.18 1014.10 1013.82 1013.78 1013.68 1013.35 1013.10 1012.88 1012.66 1012.07 1012.28 1012.07 1012.02 1012.05 1012.34 1012.46 1012.90 1013.22 1013.59 1014.17 1014.54 1015.06 1015.50 1016.35
1009.40 1009.09 1009.47 1009.78 1010.33 1010.55 1010.21 1010.81 1010.79 1010.79 1011.03 1011.62 1012.22 1013.00 1013.63 1014.20 1014.43 1014.57 1014.48 1014.69 1014.44 1014.27 1014.22 1014.28 1014.22 1014.33 1014.31 1013.98 1013.96 1014.24 1013.96 1013.85 1013.45 1013.09 1012.74 1012.78 1012.62 1012.75 1012.81 1013.15 1013.41 1013.81 1014.02 1014.16 1014.37 1014.94 1015.42 1015.94 1016.68
1008.64 1008.33 1009.20 1009.78 1010.53 1010.93 1011.01 1011.39 1010.66 1011.02 1011.44 1011.48 1011.59 1012.30 1013.11 1013.80 1014.14 1014.49 1014.44 1014.46 1014.19 1014.29 1014.27 1014.34 1014.47 1014.36 1014.40 1014.28 1014.31 1014.51 1014.28 1014.24 1013.84 1013.02 1013.21 1013.26 1013.34 1013.31 1013.16 1013.53 1013.91 1014.36 1014.26 1014.31 1014.75 1015.29 1016.02 1016.26 1016.46
1007.87 1008.82 1009.66 1010.74 1011.42 1011.87 1011.15 1011.38 1011.01 1010.49 1009.70 1010.08 1011.04 1011.70 1012.57 1013.56 1014.06 1014.33 1014.18 1014.31 1014.27 1014.40 1014.46 1014.54 1014.66 1014.56 1014.53 1014.43 1014.54 1014.57 1014.64 1014.44 1014.27 1014.07 1013.69 1013.83 1013.30 1013.55 1013.97 1013.99 1014.24 1014.50 1014.94 1014.80 1015.17 1015.69 1015.97 1016.58 1016.90
1008.16 1009.40 1010.60 1011.64 1012.16 1011.75 1010.80 1010.97 1009.85 1008.60 1008.26 1008.30 1009.27 1010.68 1011.91 1012.99 1013.80 1014.18 1014.43 1014.41 1014.38 1014.54 1014.62 1014.73 1014.87 1014.84 1014.70 1014.65 1014.74 1014.71 1014.77 1014.70 1014.50 1014.48 1014.47 1014.47 1014.45 1014.22 1014.15 1014.30 1014.75 1015.03 1014.61 1015.05 1015.24 1015.73 1016.29 1016.89 1017.26
1007.76 1008.76 1010.34 1011.20 1012.06 1011.45 1010.78 1010.06 1008.46 1007.59 1007.20 1007.37 1008.35 1009.45 1011.38 1012.78 1013.48 1013.87 1014.05 1014.13 1014.23 1014.47 1014.59 1014.91 1015.04 1015.06 1015.03 1014.92 1014.93 1014.90 1014.88 1014.85 1014.78 1014.76 1014.63 1014.56 1014.58 1014.52 1014.54 1014.71 1014.84 1015.02 1014.72 1014.99 1015.43 1016.03 1016.42 1017.44 1017.45
1007.06 1008.25 1008.31 1010.15 1011.41 1011.51 1010.65 1009.41 1007.93 1007.56 1007.44 1007.92 1009.18 1010.16 1011.30 1012.39 1013.22 1013.62 1013.76 1013.90 1014.09 1014.35 1014.47 1014.82 1015.10 1015.21 1015.23 1015.12 1015.14 1015.14 1014.95 1014.96 1015.09 1014.91 1014.68 1014.69 1014.63 1014.51 1014.72 1014.88 1014.74 1014.74 1014.89 1015.22 1015.72 1016.14 1016.51 1017.10 1017.27
1005.81 1006.83 1008.62 1010.15 1011.30 1011.67 1010.71 1009.69 1008.28 1007.81 1008.14 1009.02 1009.48 1010.34 1011.27 1012.15 1012.97 1013.45 1013.57 1013.75 1013.88 1014.01 1014.27 1014.73 1015.08 1015.20 1015.23 1015.25 1015.26 1015.27 1015.22 1015.08 1015.09 1015.19 1015.14 1014.98 1015.07 1015.13 1015.00 1015.24 1015.29 1015.33 1015.37 1015.63 1015.98 1016.46 1016.79 1017.03 1017.48
1005.99 1006.82 1008.37 1009.31 1010.43 1010.76 1010.81 1009.44 1007.44 1007.31 1007.91 1008.17 1008.22 1009.20 1010.36 1011.31 1012.29 1012.96 1013.29 1013.43 1013.59 1013.89 1014.21 1014.49 1014.94 1015.27 1015.37 1015.43 1015.40 1015.50 1015.55 1015.44 1015.43 1015.50 1015.57 1015.48 1015.40 1015.44 1015.67 1015.80 1015.91 1016.15 1016.25 1016.31 1016.49 1017.01 1017.35 1017.72 1018.11
1004.97 1005.94 1007.17 1008.97 1010.21 1010.32 1010.11 1008.32 1007.10 1007.02 1006.80 1007.87 1008.21 1008.58 1009.70 1010.61 1011.59 1012.51 1012.85 1013.15 1013.59 1013.90 1014.17 1014.44 1014.71 1015.15 1015.28 1015.31 1015.50 1015.68 1015.82 1015.90 1015.86 1015.95 1015.95 1015.89 1015.94 1015.99 1016.20 1016.30 1016.46 1016.68 1016.95 1017.12 1017.35 1017.85 1018.11 1018.35 1018.73
Wind_Speed
5 4 2 3 4 6 3 6 0 3 2 3 1 4 4 2 3 5 3 4 5 6 8 10 13 13 13 14 15 14 10 9 9 9 9 9 9 9 9 9 10 10 10 10 10 9 8 6 6
5 3 4 2 5 3 5 4 4 6 5 6 5 4 3 1 2 4 2 4 6 7 6 7 15 16 18 17 16 13 12 11 11 11 10 9 9 9 10 10 10 11 12 11 12 10 9 8 6
5 1 4 4 4 6 6 5 8 5 6 7 3 4 3 3 2 4 5 6 6 7 8 10 19 17 17 15 15 14 13 13 12 12 12 11 10 9 8 10 12 12 13 14 13 12 10 9 8
3 4 4 4 5 7 7 7 6 2 3 3 5 6 2 1 5 7 7 8 9 6 5 9 15 15 15 14 14 14 13 14 14 13 13 13 12 11 10 10 11 14 14 15 14 14 11 9 9
3 3 3 4 5 4 3 4 7 5 2 2 3 5 3 3 4 6 3 5 3 5 6 7 15 14 12 11 13 15 16 15 15 14 14 15 14 14 13 13 13 15 16 16 16 15 12 10 9
4 3 3 3 6 4 2 5 8 4 1 2 5 4 3 1 1 4 6 6 7 6 2 3 8 11 12 13 14 15 16 15 16 15 16 16 17 15 13 13 15 15 16 17 18 15 13 10 7
6 4 4 5 5 1 4 6 7 5 6 3 8 4 1 0 4 6 6 7 5 6 6 2 1 2 5 7 8 8 7 11 18 17 19 19 18 17 15 15 16 16 16 18 17 17 13 11 9
5 5 2 4 6 5 5 6 6 7 4 6 3 5 4 3 6 5 7 5 5 1 0 1 1 3 2 3 6 7 8 8 7 11 14 15 16 18 18 16 14 16 16 17 18 18 14 12 8
4 3 3 6 9 6 4 5 3 2 6 3 2 4 6 7 5 5 5 6 5 3 4 2 1 2 4 1 4 6 9 8 7 9 11 11 4 4 5 8 12 14 16 17 17 17 14 12 9
5 4 7 6 4 7 7 6 8 5 4 3 5 4 5 5 5 8 5 4 5 6 4 0 1 3 3 3 4 4 4 3 3 4 4 3 4 3 5 9 14 14 14 14 17 17 15 12 4
4 7 7 4 4 6 6 3 5 12 2 7 12 9 6 5 6 6 1 2 3 3 2 2 2 3 3 3 3 2 2 2 2 3 4 2 3 3 3 2 2 2 10 4 10 8 4 6 4
3 10 8 6 5 6 8 6 5 5 8 10 9 9 6 7 7 5 5 5 4 4 4 4 3 4 4 3 3 3 2 3 2 2 3 3 1 3 4 3 3 3 3 4 4 3 5 6 6
4 4 5 7 8 6 6 4 6 6 6 8 10 8 9 8 6 3 5 5 3 4 5 4 4 4 4 4 3 3 3 3 2 2 3 3 3 3 2 2 2 3 3 3 4 5 6 6 8
5 5 5 5 6 7 7 3 4 5 6 9 10 9 8 9 7 4 5 4 3 3 4 4 3 3 4 3 4 4 4 4 3 3 4 5 3 2 2 2 3 4 4 3 4 6 6 6 9
3 4 5 3 5 5 5 2 8 7 8 10 8 7 8 7 6 6 5 3 1 2 4 5 3 3 4 4 4 4 3 3 3 3 4 4 3 3 4 3 3 3 3 6 5 7 7 7 8
2 4 3 5 5 2 6 10 4 9 12 10 8 7 7 6 6 5 6 4 1 3 4 4 4 4 4 4 4 4 4 3 3 3 3 5 4 5 3 3 2 4 4 5 7 8 9 8 9
6 4 5 5 8 3 3 7 3 9 9 9 9 7 7 5 4 4 5 5 2 2 3 3 4 4 4 4 4 4 5 3 3 3 3 4 1 4 5 4 4 7 6 6 7 7 9 9 9
5 5 5 6 4 6 6 10 4 8 8 10 8 7 7 7 5 6 6 5 3 1 3 2 3 3 4 4 4 3 3 3 3 3 2 3 4 5 5 6 5 4 6 8 8 10 9 9 10
5 4 7 4 4 6 12 8 10 8 4 8 8 8 7 7 6 5 5 5 3 1 2 1 4 3 3 2 3 3 3 3 3 3 5 4 3 5 5 6 6 6 5 8 9 9 12 9 11
5 7 7 7 4 8 6 12 5 8 10 7 11 8 9 5 5 5 5 5 1 2 2 1 2 4 3 1 1 2 2 2 2 4 5 5 5 7 7 5 7 8 6 9 10 9 8 8 5
6 5 5 8 5 2 3 7 3 4 5 7 6 6 5 10 9 6 6 5 3 1 2 2 3 2 3 4 2 3 3 2 3 3 3 4 6 6 7 6 6 7 5 7 8 9 11 7 5
7 8 9 5 3 6 6 6 5 4 10 9 11 9 10 9 5 6 6 5 5 3 2 1 1 2 2 4 4 4 2 3 3 2 3 5 6 8 7 7 6 6 4 6 7 6 7 9 7
12 9 10 5 5 2 1 4 8 3 6 10 13 12 10 9 9 9 8 7 5 5 4 2 2 4 3 4 5 4 4 2 2 3 5 6 5 6 6 3 5 5 3 5 9 6 9 3 4
13 1 6 4 3 2 7 6 6 5 9 6 8 10 12 10 8 8 8 6 4 3 3 1 2 3 3 5 5 6 4 4 4 3 4 4 4 3 4 6 4 3 3 5 4 5 6 6 7
4 6 3 5 4 7 1 3 10 10 11 11 20 15 14 10 9 8 8 7 5 6 5 2 1 3 3 6 6 5 4 4 4 4 3 4 2 2 4 5 5 3 2 4 5 5 5 5 6
9 11 7 8 5 9 3 5 8 6 8 7 13 15 14 10 8 9 10 8 7 7 7 4 2 2 4 5 5 5 6 3 3 3 3 2 3 3 3 5 5 6 6 5 6 3 4 5 6
6 4 8 5 2 3 4 7 10 2 6 8 9 13 14 12 9 11 8 8 8 6 7 7 5 2 2 5 5 4 5 5 4 4 4 3 3 2 6 3 5 4 6 6 6 4 5 4 5
9 5 3 3 4 6 4 3 7 6 4 5 9 11 12 9 9 9 8 8 6 7 5 6 6 7 4 3 3 4 4 5 3 4 6 6 4 4 3 6 7 7 7 7 7 6 5 7 4
2 2 4 5 5 7 1 8 8 8 8 16 15 17 17 15 13 12 8 7 8 5 6 7 7 6 5 5 4 5 4 3 3 5 4 5 5 6 7 7 7 9 8 7 10 8 7 8 6
5 10 8 6 4 3 4 9 4 4 9 8 12 17 16 15 14 11 10 8 7 7 6 7 7 7 7 6 5 5 5 3 4 4 4 4 7 6 7 7 8 8 9 7 9 8 6 8 8
Wind_Direction
150 153 192 53 70 68 255 250 249 211 254 233 12 145 167 110 153 214 251 214 232 191 186 200 193 201 206 209 213 216 219 222 236 241 245 252 256 255 263 270 268 256 252 255 263 256 265 276 289
160 135 34 76 88 89 256 246 236 223 222 87 98 91 54 88 104 141 104 168 187 194 177 185 199 203 210 214 218 222 224 227 232 240 245 242 248 255 258 261 268 267 248 245 252 249 252 262 275
140 69 86 107 117 188 210 193 217 241 219 159 135 46 125 148 128 156 215 183 189 194 185 197 205 206 214 222 227 230 234 237 239 236 235 230 235 244 254 264 260 263 260 241 242 248 244 252 256
111 18 29 92 230 246 198 197 204 214 267 223 133 99 39 243 162 183 212 218 168 198 214 208 212 215 223 231 237 243 248 253 246 242 236 228 236 238 246 259 271 258 257 250 231 241 238 236 250
57 61 48 318 264 256 214 187 168 196 245 249 133 159 141 292 181 196 270 306 271 184 182 202 220 223 235 245 251 255 256 258 260 246 236 233 235 242 246 256 260 265 242 243 240 229 227 232 242
58 103 62 268 261 278 269 179 159 204 236 211 78 92 203 8 199 25 28 58 73 125 145 225 247 239 239 249 259 261 263 261 256 250 243 239 237 242 248 252 260 259 244 241 241 224 217 222 222
129 103 218 244 265 178 231 156 169 173 155 229 153 112 236 74 76 75 71 60 61 117 140 178 346 335 311 299 299 311 302 303 247 242 240 239 238 248 243 257 256 256 243 241 235 226 218 207 212
124 106 197 221 214 222 221 167 167 148 188 125 133 172 201 185 116 93 68 66 65 111 66 246 48 6 325 305 318 331 319 306 292 274 264 249 234 235 238 248 254 256 247 244 226 220 212 207 198
138 73 252 243 167 224 194 150 206 98 101 68 23 133 148 132 122 77 36 11 8 3 10 79 43 340 337 335 327 324 313 301 301 299 292 286 293 251 261 244 253 250 243 244 219 213 208 207 195
113 135 235 208 228 203 179 161 163 109 116 57 71 54 97 99 100 87 67 14 8 340 340 179 329 343 354 331 325 302 294 302 288 284 271 279 276 259 239 238 244 240 245 228 213 206 202 196 160
196 223 201 267 213 160 166 194 156 125 216 197 175 170 146 115 91 100 96 31 346 310 329 314 328 329 341 325 307 295 288 282 275 305 297 274 243 237 247 247 282 307 255 198 206 196 157 154 158
255 257 193 193 169 142 170 157 150 178 211 165 165 152 141 137 135 153 75 40 12 346 323 341 345 331 320 293 303 304 303 269 273 260 263 255 222 199 213 217 235 241 228 192 192 147 138 148 157
213 240 178 146 151 166 132 181 175 201 165 134 136 139 148 145 155 132 88 61 30 347 328 353 351 335 309 290 303 301 283 277 254 280 255 224 212 183 181 229 239 222 213 195 161 137 148 152 148
229 207 182 167 174 154 131 176 123 233 159 142 144 159 156 149 158 141 79 64 16 324 355 345 346 344 308 303 296 290 296 295 278 241 246 242 224 204 207 252 223 212 196 182 167 142 143 153 143
168 109 347 251 191 189 128 198 231 182 162 161 160 160 150 157 160 132 124 122 287 347 354 354 273 319 318 309 310 323 340 319 272 269 249 240 226 217 231 229 205 191 169 174 138 123 141 132 133
164 83 184 257 148 273 123 261 253 169 161 177 167 166 154 165 164 145 136 164 191 41 11 354 329 306 310 321 325 335 339 328 330 317 304 293 285 249 219 142 137 136 134 113 125 139 134 130 129
358 250 227 296 189 142 167 258 261 169 173 177 177 169 161 153 151 142 156 187 185 54 356 339 330 292 331 345 334 338 338 346 333 318 321 293 352 61 99 114 90 116 112 122 129 133 131 126 120
245 273 263 259 217 188 201 249 278 188 184 177 174 169 166 158 185 157 168 210 211 31 2 311 327 315 321 321 347 337 349 347 339 339 303 116 73 79 83 106 118 114 112 134 130 129 121 121 120
221 235 256 245 245 180 224 224 230 196 204 171 172 177 174 178 204 149 165 211 222 331 28 328 314 316 357 358 351 338 331 341 326 340 16 48 67 82 107 97 82 102 105 127 135 117 124 116 123
235 252 272 283 244 175 254 246 215 186 215 179 170 185 179 185 180 166 164 216 152 327 300 343 275 327 358 63 310 280 296 304 335 317 37 83 51 57 64 97 94 104 103 104 127 126 129 114 117
257 229 249 235 338 236 125 304 207 221 179 157 187 176 168 180 177 179 179 204 167 314 306 236 240 293 2 31 44 327 320 29 359 342 5 43 79 65 55 81 90 78 93 110 110 126 130 111 111
267 234 247 248 152 234 139 258 293 230 209 191 177 179 183 189 170 179 178 199 178 213 282 312 244 4 16 46 57 49 34 28 0 3 20 41 30 57 45 46 64 74 104 111 114 108 107 120 113
248 238 231 228 204 140 309 85 265 118 218 227 199 188 184 190 175 184 185 200 198 194 226 268 68 52 33 115 101 91 62 55 12 359 52 46 38 35 32 44 85 60 49 76 106 103 119 67 90
245 257 48 44 85 33 234 147 285 224 210 206 190 192 177 184 184 189 194 200 169 198 242 272 81 58 83 120 117 107 85 82 86 59 41 35 18 33 118 141 119 97 124 111 121 106 113 120 109
114 80 295 340 351 219 262 108 228 250 237 198 186 184 173 176 176 180 185 203 179 188 217 232 53 88 100 116 129 126 99 85 90 84 96 103 121 32 72 126 137 137 229 155 142 122 122 97 122
203 182 169 211 222 259 187 231 255 230 274 216 192 170 153 168 177 182 191 194 191 197 209 198 206 137 136 119 122 132 128 109 59 78 91 103 104 102 99 103 143 170 196 168 138 131 131 147 144
220 178 204 128 353 46 253 299 319 24 37 106 132 148 168 177 177 188 192 194 193 200 205 189 182 210 191 130 129 132 130 121 115 72 74 92 106 85 106 91 103 105 113 127 124 150 140 149 133
163 175 87 359 174 252 277 267 246 271 175 150 158 173 175 164 176 192 190 196 196 206 193 178 179 190 191 153 135 129 132 129 124 99 74 77 92 108 93 79 83 73 68 86 96 88 85 89 63
205 155 56 123 136 183 191 263 221 245 197 201 187 176 178 175 182 188 195 198 187 179 177 187 176 180 183 172 156 135 126 114 110 104 97 88 80 94 88 78 76 81 81 79 79 72 85 90 94
175 186 152 164 228 152 157 262 30 275 214 197 201 180 178 177 178 189 186 185 174 178 176 186 183 179 194 181 158 149 132 123 114 115 101 87 87 75 95 79 76 75 73 73 92 88 76 97 90